Location: Ebendorf
(52.1827°N, 11.5706°E)
Time: 08:14:35
(UTC+00:00)

Landsat 4 - Pass Details

Date: 15 May 2021
Orbit: 505 x 520 km, 98.2° (Epoch: 23 June)

Event Time Altitude Azimuth Distance (km) Brightness Sun altitude
Rises 01:27:17 0° 15° (NNE) 2,643 8.8 -12.9°
Reaches altitude 10° 01:29:23 10° 17° (NNE) 1,754 7.7 -12.7°
Maximum altitude 01:33:10 82° 103° (ESE) 530 3.7 -12.4°
Enters shadow 01:36:01 17° 192° (SSW) 1,362 5.3 -12.2°
